User: anonymous   Login
Location: Saddleback Butte
(34.6776°N, 117.8050°W)
Time: 05:16:53
(UTC-08:00)
Language:

Cosmos 1862 Rocket - Orbit

View from above orbital plane
View from above orbital plane
View from above satellite
View from above satellite

Ground track
Ground track

The orbit data is extracted from the following two-line orbital elements,

1 18153U 87055B   17020.86492799  .00000076  00000-0  63735-5 0  9999
2 18153  82.4987 242.7889 0020933 205.3140 154.7051 14.83158051596526
Epoch (UTC): 20 January 2017 20:45:29
Eccentricity: 0.0020933
inclination: 82.4987°
perigee height: 605 km
apogee height: 634 km
right ascension of ascending node: 242.7889°
argument of perigee: 205.3140°
revolutions per day: 14.83158051
mean anomaly at epoch: 154.7051°
orbit number at epoch: 59652

The dashed part of the orbit path shows where the satellite is in the earth's shadow,  

DLR